Home   Weather   Mosul   Past weeks

Flag for Iraq Past Weather in Mosul, Iraq — Yesterday and Last 2 Weeks

Now
18 °F

Clear.


Feels Like: 11 °F
Forecast: 29 / 53 °F
Wind: 5 mph from North

Location: Orumieh

Current Time: Dec 10, 2016 at 2:22:09 am

Latest Report: Dec 10, 2016 at 2:00 am


Visibility: 10 mi

Pressure: 30.04 "Hg

Humidity: 86%

Dew Point: 14 °F

Location of MosulLocation

Past Weather in Mosul — Graph

°F

Mosul Temperature Yesterday

Maximum temperature yesterday: 34 °F (at 12:00 pm)
Minimum temperature yesterday: 12 °F (at 3:00 am)
Average temperature yesterday: 25 °F

High & Low Weather Summary for the Past Weeks

 TemperatureHumidityPressure
High55 °F (Dec 1, 1:30 pm)100% (Dec 1, 4:00 am)30.30 "Hg (Dec 1, 4:00 am)
Low12 °F (Dec 9, 3:00 am)16% (Nov 27, 1:00 pm)29.68 "Hg (Dec 2, 6:00 am)
Average32 °F60%30.10 "Hg
* Reported Nov 25 1:00 am — Dec 10 1:00 am, Mosul, Weather by CustomWeather, © 2016

Note: Actual official high and low records may vary slightly from our data, if they occured in-between our weather recording intervals... More about our weather records

Advertising

Mosul Weather History for the Previous 24 Hours

Scroll right to see more
 ConditionsComfort  
Time TempWeatherWind HumidityBarometerVisibility
1:00 am
Sat, Dec 10
18 °FClear.5 mph86%30.04 "Hg10 mi
12:30 am19 °FClear.5 mph86%30.04 "Hg10 mi
12:00 am19 °FClear.5 mph86%30.04 "Hg10 mi
11:30 pm
Fri, Dec 9
19 °FPassing clouds.5 mph79%30.04 "HgN/A
11:00 pm19 °FPassing clouds.2 mph79%30.04 "Hg6 mi
10:30 pm21 °FClear.5 mph68%30.01 "Hg10 mi
10:00 pm21 °FClear.5 mph68%30.01 "Hg10 mi
9:30 pm23 °FClear.5 mph74%30.04 "Hg10 mi
9:00 pm23 °FClear.5 mph74%30.04 "Hg10 mi
8:30 pm25 °FPassing clouds.5 mph69%30.07 "HgN/A
8:00 pm27 °FPassing clouds.No wind64%30.07 "HgN/A
7:30 pm27 °FPassing clouds.5 mph64%30.04 "HgN/A
7:00 pm27 °FPassing clouds.5 mph59%30.04 "HgN/A
6:30 pm25 °FPassing clouds.9 mph63%30.04 "HgN/A
6:00 pm27 °FPassing clouds.9 mph64%30.04 "HgN/A
5:30 pm28 °FPassing clouds.5 mph59%30.04 "HgN/A
5:00 pm28 °FPartly sunny.5 mph59%30.04 "HgN/A
4:30 pm30 °FPartly sunny.5 mph55%30.04 "HgN/A
4:00 pm32 °FPartly sunny.5 mph47%30.04 "HgN/A
3:30 pm32 °FPartly sunny.7 mph47%30.04 "HgN/A
3:00 pm34 °FPartly sunny.5 mph44%30.04 "HgN/A
2:30 pm34 °FScattered clouds.9 mph44%30.04 "HgN/A
2:00 pm34 °FPassing clouds.9 mph44%30.04 "HgN/A
1:30 pm34 °FPassing clouds.9 mph44%30.07 "HgN/A
1:00 pm34 °FPassing clouds.7 mph44%30.07 "HgN/A
12:30 pm34 °FPassing clouds.5 mph41%30.07 "HgN/A
12:00 pm34 °FPassing clouds.5 mph41%30.09 "HgN/A
11:30 am32 °FPassing clouds.5 mph44%30.09 "HgN/A
11:00 am32 °FPassing clouds.5 mph51%30.12 "HgN/A
10:30 am30 °FPassing clouds.5 mph51%30.15 "HgN/A
10:00 am30 °FPassing clouds.5 mph51%30.15 "HgN/A
9:00 am25 °FSunny.7 mph63%30.15 "Hg10 mi
8:00 am18 °FSunny.7 mph73%30.15 "Hg10 mi
7:30 am16 °FClear.7 mph73%30.18 "Hg10 mi
7:00 am14 °FClear.5 mph73%30.18 "Hg10 mi
6:00 am14 °FClear.5 mph73%30.18 "Hg10 mi
5:00 am14 °FClear.5 mph73%30.18 "Hg10 mi
4:00 am16 °FClear.5 mph67%30.18 "Hg10 mi
3:00 am12 °FClear.No wind85%30.21 "Hg10 mi
2:00 am14 °FClear.No wind79%30.21 "Hg10 mi
Weather by CustomWeather, © 2016

See weather overviewHow to use our weather pages